Location: Casone le Fosse
(44.6547°N, 12.1103°E)
Time: 11:06:28
(UTC+00:00)

USA 305 - Pass Details

Date: 29 October 2020
Orbit: 569 x 577 km, 54.0° (Epoch: 22 November)

Event Time Altitude Azimuth Distance (km) Brightness Sun altitude
Rises 17:50:42 0° 305° (NW) 2,786 7.3 -19.4°
Reaches altitude 10° 17:52:57 10° 305° (NW) 1,884 6.3 -19.8°
Maximum altitude 17:57:15 89° 232° (SW) 577 2.8 -20.6°
Enters shadow 17:58:08 56° 127° (SE) 684 2.9 -20.8°
